User: anonymous
Location: NJAA Observatory
(40.6819°N, 74.8979°W)
Time: 22:01:31
(UTC-04:00)
Language:

Cosmos 1633 - Orbit

View from above orbital plane
View from above orbital plane
View from above satellite
View from above satellite

Ground track
Ground track

The orbit data is extracted from the following two-line orbital elements,

1 15592U 85020A   14110.50603551  .00012521  00000-0  61072-3 0  4264
2 15592 082.5439 028.0560 0016039 272.3665 140.5546 15.18079015588537
Epoch (UTC): 20 April 2014 12:08:41
Eccentricity: 0.0016039
inclination: 82.5439°
perigee height: 500 km
apogee height: 523 km
right ascension of ascending node: 28.0560°
argument of perigee: 272.3665°
revolutions per day: 15.18079015
mean anomaly at epoch: 140.5546°
orbit number at epoch: 58853

The dashed part of the orbit path shows where the satellite is in the earth's shadow,  

DLR